Regional Weather Roundup
Issued by NWS

Home | Current Version | Previous Version | Graphics & Text | Print | Product List | Glossary On
Versions: 1 2 3 4 5 6 7 8 9 10 11 12 13 14 15 16 17 18 19 20 21 22 23 24 25 26 27
000
ASUS45 KSLC 040210
RWRUT

UTAH REGIONAL WEATHER ROUNDUP
NATIONAL WEATHER SERVICE SALT LAKE CITY UT
800 PM MDT TUE MAY 03 2016

UTZ001>011-023>025-040300-

NORTHERN UTAH

CITY           SKY/WX    TMP DP  RH WIND       PRES   REMARKS
BRIGHAM CITY   CLEAR     71  26  18 NW3       30.13S
HILL AFB       CLEAR     67  30  24 NW6       30.15S
LOGAN          CLEAR     67  40  37 W5        30.13F
OGDEN          CLEAR     67  31  26 NW5       30.13F
PROVO AIRPORT  CLEAR     66  41  39 VRB6        N/A
SALT LAKE CITY PTCLDY    71  32  23 NW10      30.12S
VERNAL         CLEAR     67  26  21 SW5       30.18R
WENDOVER       CLEAR     66  28  24 CALM      30.14S
HEBER CITY     CLEAR     63  34  34 SW6       30.14S

$$

UTZ012>022-026-027-040300-

SOUTHERN/CENTRAL UTAH

CITY           SKY/WX    TMP DP  RH WIND       PRES   REMARKS
BLANDING       CLEAR     65  28  25 NE5       30.26R
BRYCE CANYON   CLEAR     54  24  31 SE6       30.27S
CEDAR CITY     CLEAR     65  37  35 SW9       30.13R
DELTA          CLEAR     68  32  26 N6        30.12S
HANKSVILLE     CLEAR     72  23  16 NE6       30.14S
MILFORD        CLEAR     69  30  23 N9        30.11S
MOAB/CYNLANDS  CLEAR     71  30  21 NW7       30.10R
PRICE          CLEAR     66  24  20 CALM      30.18F
ST GEORGE      CLEAR     81  28  15 E10       30.01S
KANAB          CLEAR     66  28  24 NE9       30.17R

$$

REGIONAL REPORTS     COLORADO/ARIZONA

CITY           SKY/WX    TMP DP  RH WIND       PRES   REMARKS
CRAIG, CO      CLEAR     62  29  28 NW3       30.23R
GRAND JUNCTION CLEAR     69  32  25 CALM      30.12R
RIFLE          CLEAR     67  25  20 NW8       30.16R
MONTROSE       CLEAR     65  26  23 N3        30.19R
CORTEZ         CLEAR     63  29  27 S10       30.19R
PAGE, AZ       CLEAR     71  27  19 NE6       30.11S
GRAND CANYON   CLEAR     62  23  22 E8        30.23R
KINGMAN        CLEAR     78  31  17 SW9       29.98S
FLAGSTAFF      CLEAR     55  30  38 E3        30.24R

$$

REGIONAL REPORTS    NEVADA/IDAHO/WYOMING

CITY           SKY/WX    TMP DP  RH WIND       PRES   REMARKS
LAS VEGAS, NV  MOCLDY    82  28  14 NW7       29.91S
ELY            CLEAR     63  24  22 S10       30.17S
ELKO           CLEAR     68  32  26 SW3       30.10S
POCATELLO, ID  CLEAR     67  41  38 W5        30.14S
BURLEY         CLEAR     68  35  29 SE10      30.08F
EVANSTON, WY   CLEAR     61  23  23 E8        30.24S
ROCK SPRINGS   CLEAR     59  24  26 S5        30.25S
KEMMERER         N/A     59  18  20 SE6       30.26S

$$




USA.gov is the U.S. government's official web portal to all federal, state and local government web resources and services.